Weather in Pen'ki

Russia / Ivanovo Oblast     56°49′16″N   42°13′13″E
temp.,
°C
wind,
m/s
gust,
m/s
humid.,
%
clouds,
%
prec.,
mm/h
press.,
hPa
HPBL,
m
7 march, sun
sun700:00−15sw23960 0.0 101221
03:00−16ssw33960 0.0 101054
06:00−14s4109538 0.0 1006205
09:00−8s7138769 0.1 1002682
12:00−6ssw71292100 1.3 9981040
15:00−5ssw61193100 2.4 994904
18:00−4ssw41096100 1.4 992608
21:00−6nnw3782100 2.5 991246
8 march, mon
mon800:00−9nw3587100 0.1 990116
03:00−11wnw3682100 0.1 992114
06:00−13w2388100 0.0 99350
09:00−9w359182 0.0 995268
12:00−6wsw228677 0.1 996567
15:00−5w228188 0.3 998639
18:00−9nw389097 0.3 1000210
21:00−10nnw499497 0.3 1004408
9 march, tue
tue900:00−12nnw489493 0.1 1006305
03:00−17nnw369782 0.1 100899
06:00−19nnw369860 0.0 1010101
09:00−18nnw359566 0.0 1012261
12:00−14nnw358888 0.0 1014502
15:00−13nw458894 0.1 1015666
18:00−16nw4894100 0.1 1016288
21:00−20nnw3897100 0.1 1019168
10 march, wed
wed1000:00−23nnw369891 0.0 1020109
03:00−26nnw369877 0.0 102191
06:00−29nnw349833 0.0 102378
09:00−25n359521 0.0 1025245
12:00−19nnw358440 0.0 1025489
15:00−16nw358237 0.0 1025615
18:00−20wnw339111 0.0 102451
21:00−21wnw389421 0.0 1025158
11 march, thu
thu1100:00−21wnw389389 0.0 1025177
03:00−23w369644 0.0 1026126
06:00−23w36960 0.0 1026112
09:00−18wnw46900 0.0 1027243
12:00−12w35840 0.0 1026360
15:00−9w35790 0.0 1026533
18:00−13sw23860 0.0 102521
21:00−16ssw36920 0.0 102589